KB1DML-3 Weather Reports


Display with metric or nautical units.
time (UTC)temp
F
wind
direction
speed
MPH
gust
MPH
rain 1hr
in
rain 24hr
in
rain mn
in
humidity
%
barometer
mb
20260901134017 65 45 7.0 10.0 0.23 0.23 0.23 87 1016.1
20260901133517 65 45 7.0 10.0 0.21 0.21 0.21 87 1016.2
20260901133017 65 45 9.0 12.0 0.19 0.19 0.19 87 1016.2
20260901132517 65 0 9.0 12.0 0.17 0.17 0.17 87 1016.2
20260901132017 65 0 11.0 14.0 0.15 0.15 0.15 86 1016.2
20260901131517 65 338 11.0 14.0 0.12 0.12 0.12 86 1016.3
20260901131016 66 338 11.0 15.0 0.10 0.10 0.10 86 1016.1
20260901130516 66 338 13.0 15.0 0.08 0.08 0.08 85 1016.2
20260901130017 66 338 12.0 15.0 0.06 0.06 0.06 85 1016.2
20260901125516 67 23 11.0 14.0 0.03 0.03 0.03 85 1016.1
20260901125016 67 23 6.0 9.0 0.01 0.01 0.01 85 1016.1
20260901124517 66 23 6.0 8.0 0.00 0.00 0.00 84 1016.1
20260901124037 67 23 5.0 7.0 0.00 0.00 0.00 84 1016.1
20260901123517 67 23 5.0 7.0 0.00 0.00 0.00 84 1016.2
20260901123016 67 23 6.0 8.0 0.00 0.00 0.00 84 1016.1
20260901122517 67 23 7.0 9.0 0.00 0.00 0.00 84 1016.0
20260901122017 67 45 7.0 10.0 0.00 0.00 0.00 84 1015.9
20260901121537 67 23 5.0 8.0 0.00 0.00 0.00 84 1016.0
20260901121016 67 23 5.0 9.0 0.00 0.00 0.00 84 1016.0
20260901120517 67 23 4.0 7.0 0.00 0.00 0.00 84 1015.9
20260901120017 67 0 5.0 7.0 0.00 0.00 0.00 84 1015.9
20260901115516 67 338 4.0 7.0 0.00 0.00 0.00 85 1015.9
20260901115016 67 338 5.0 8.0 0.00 0.00 0.00 84 1015.9
20260901114517 67 0 5.0 8.0 0.00 0.00 0.00 84 1015.8
20260901114016 67 23 5.0 8.0 0.00 0.00 0.00 84 1015.8
20260901113537 67 338 4.0 8.0 0.00 0.00 0.00 84 1015.8
20260901113036 67 338 3.0 5.0 0.00 0.00 0.00 85 1015.8
20260901112516 67 338 3.0 5.0 0.00 0.00 0.00 85 1015.7
20260901112037 67 315 2.0 3.0 0.00 0.00 0.00 85 1015.7
20260901111516 67 270 1.0 3.0 0.00 0.00 0.00 85 1015.6
20260901111016 67 315 1.0 2.0 0.00 0.00 0.00 85 1015.5
20260901110536 67 338 2.0 3.0 0.00 0.00 0.00 85 1015.5
20260901110016 67 270 2.0 3.0 0.00 0.00 0.00 85 1015.4
20260901105517 67 270 3.0 6.0 0.00 0.00 0.00 85 1015.3
20260901105016 67 270 3.0 6.0 0.00 0.00 0.00 85 1015.2
20260901104557 67 248 4.0 8.0 0.00 0.00 0.00 85 1015.2
20260901104016 67 248 2.0 3.0 0.00 0.00 0.00 85 1015.2
20260901103516 67 45 1.0 2.0 0.00 0.00 0.00 85 1015.0
20260901103016 67 248 1.0 3.0 0.00 0.00 0.00 85 1015.0
20260901102537 67 248 2.0 4.0 0.00 0.00 0.00 85 1014.9
20260901102017 67 270 4.0 7.0 0.00 0.00 0.00 85 1014.8
20260901101516 67 270 6.0 9.0 0.00 0.00 0.00 85 1014.8
20260901101036 67 248 7.0 9.0 0.00 0.00 0.00 86 1014.8
20260901100536 66 248 8.0 11.0 0.00 0.00 0.00 86 1014.8
20260901100057 66 248 8.0 10.0 0.00 0.00 0.00 86 1014.8
20260901095516 66 248 7.0 10.0 0.00 0.00 0.00 86 1014.7
20260901095036 66 248 7.0 10.0 0.00 0.00 0.00 86 1014.8
20260901094537 66 248 8.0 11.0 0.00 0.00 0.00 86 1014.7
20260901094016 66 248 8.0 11.0 0.00 0.00 0.00 86 1014.7
20260901093537 66 248 10.0 13.0 0.00 0.00 0.00 86 1014.7
20260901093016 66 225 9.0 12.0 0.00 0.00 0.00 86 1014.6
20260901092536 67 225 9.0 12.0 0.00 0.00 0.00 86 1014.7
20260901092016 67 248 8.0 11.0 0.00 0.00 0.00 85 1014.7
20260901091536 67 248 10.0 13.0 0.00 0.00 0.00 85 1014.7
20260901091016 67 248 11.0 14.0 0.00 0.00 0.00 85 1014.7
20260901090516 67 248 11.0 14.0 0.00 0.00 0.00 85 1014.5
20260901090016 67 248 11.0 14.0 0.00 0.00 0.00 85 1014.5
20260901085516 67 248 11.0 14.0 0.00 0.00 0.00 85 1014.7
20260901085017 67 248 12.0 15.0 0.00 0.00 0.00 86 1014.8
20260901084516 67 248 11.0 15.0 0.00 0.00 0.00 85 1014.9
20260901084017 67 248 10.0 16.0 0.00 0.00 0.00 85 1014.8
20260901083516 67 248 11.0 15.0 0.00 0.00 0.00 85 1014.7
20260901083016 67 248 11.0 14.0 0.00 0.00 0.00 85 1014.8
20260901082537 67 248 11.0 14.0 0.00 0.00 0.00 85 1014.9
20260901082016 67 248 10.0 13.0 0.00 0.00 0.00 85 1014.8
20260901081516 67 248 10.0 13.0 0.00 0.00 0.00 86 1014.9
20260901081017 67 248 10.0 13.0 0.00 0.00 0.00 86 1014.9
20260901080516 67 248 10.0 14.0 0.00 0.00 0.00 85 1015.0
20260901080016 67 248 11.0 14.0 0.00 0.00 0.00 85 1014.9
20260901075516 67 248 10.0 13.0 0.00 0.00 0.00 85 1015.1
20260901075016 67 248 10.0 13.0 0.00 0.00 0.00 85 1015.1
20260901074516 67 248 9.0 14.0 0.00 0.00 0.00 85 1015.2
20260901074036 67 248 10.0 14.0 0.00 0.00 0.00 85 1015.1
20260901073516 67 248 10.0 14.0 0.00 0.00 0.00 85 1015.2
20260901073016 67 248 11.0 14.0 0.00 0.00 0.00 85 1015.2
20260901072516 67 248 10.0 13.0 0.00 0.00 0.00 85 1015.2
20260901072016 67 248 10.0 12.0 0.00 0.00 0.00 85 1015.4
20260901071516 67 248 10.0 14.0 0.00 0.00 0.00 85 1015.4
20260901071016 67 248 10.0 13.0 0.00 0.00 0.00 85 1015.3
20260901070516 67 248 10.0 13.0 0.00 0.00 0.00 85 1015.3
20260901070039 67 248 11.0 14.0 0.00 0.00 0.00 85 1015.4
20260901065516 67 248 10.0 14.0 0.00 0.00 0.00 85 1015.3
20260901065016 67 248 11.0 14.0 0.00 0.00 0.00 85 1015.4
20260901064516 67 248 11.0 14.0 0.00 0.00 0.00 85 1015.3
20260901064016 67 248 11.0 15.0 0.00 0.00 0.00 85 1015.4
20260901063516 67 248 11.0 14.0 0.00 0.00 0.00 85 1015.4
20260901063036 67 248 11.0 14.0 0.00 0.00 0.00 85 1015.4
20260901062516 67 248 11.0 14.0 0.00 0.00 0.00 85 1015.5
20260901062016 67 248 10.0 14.0 0.00 0.00 0.00 85 1015.5
20260901061516 67 248 11.0 14.0 0.00 0.00 0.00 85 1015.6
20260901061016 67 248 10.0 14.0 0.00 0.00 0.00 85 1015.6
20260901060516 67 248 11.0 14.0 0.00 0.00 0.00 85 1015.6
20260901060016 67 248 11.0 14.0 0.00 0.00 0.00 85 1015.6
20260901055516 67 248 11.0 14.0 0.00 0.00 0.00 85 1015.6
20260901055036 67 248 11.0 15.0 0.00 0.00 0.00 85 1015.6
20260901054517 67 248 10.0 15.0 0.00 0.00 0.00 85 1015.6
20260901054016 67 248 11.0 14.0 0.00 0.00 0.00 85 1015.6
20260901053515 67 248 11.0 16.0 0.00 0.00 0.00 84 1015.5
20260901053016 67 225 12.0 16.0 0.00 0.00 0.00 84 1015.4
20260901052516 67 225 12.0 15.0 0.00 0.00 0.00 84 1015.3
20260901052036 67 225 12.0 16.0 0.00 0.00 0.00 84 1015.3
20260901051516 67 225 11.0 16.0 0.00 0.00 0.00 84 1015.4
20260901051016 68 225 12.0 17.0 0.00 0.00 0.00 84 1015.5
20260901050516 68 225 12.0 16.0 0.00 0.00 0.00 84 1015.6
20260901050015 68 225 12.0 17.0 0.00 0.00 0.00 84 1015.7
20260901045536 68 248 13.0 17.0 0.00 0.00 0.00 84 1015.6
20260901045016 68 225 13.0 17.0 0.00 0.00 0.00 84 1015.6
20260901044516 68 248 12.0 17.0 0.00 0.00 0.00 84 1015.6
20260901044036 68 225 13.0 17.0 0.00 0.00 0.00 84 1015.6
20260901043516 68 248 13.0 16.0 0.00 0.00 0.00 84 1015.8
20260901043036 68 248 13.0 17.0 0.00 0.00 0.00 84 1015.8
20260901042516 68 225 13.0 18.0 0.00 0.00 0.00 84 1015.8
20260901042016 68 225 12.0 16.0 0.00 0.00 0.00 84 1015.7
20260901041516 68 225 12.0 17.0 0.00 0.00 0.00 84 1015.7
20260901041015 68 225 9.0 17.0 0.00 0.00 0.00 84 1015.8
20260901040516 68 225 10.0 17.0 0.00 0.00 0.00 84 1015.9
20260901040016 68 225 10.0 16.0 0.00 0.00 0.00 84 1015.9
20260901035536 68 225 10.0 16.0 0.00 0.00 0.00 84 1015.9
20260901035016 68 225 8.0 17.0 0.00 0.00 0.00 84 1015.9
20260901034516 68 225 8.0 14.0 0.00 0.00 0.00 84 1015.9
20260901034036 68 225 9.0 14.0 0.00 0.00 0.00 84 1015.9
20260901033516 68 225 11.0 18.0 0.00 0.00 0.00 84 1015.8
20260901033016 68 225 11.0 18.0 0.00 0.00 0.00 84 1015.9
20260901032537 68 225 11.0 17.0 0.00 0.00 0.00 83 1015.9
20260901032016 68 225 12.0 17.0 0.00 0.00 0.00 83 1015.8
20260901031516 68 225 13.0 18.0 0.00 0.00 0.00 83 1015.7
20260901031036 68 225 12.0 18.0 0.00 0.00 0.00 84 1015.8
20260901030516 68 225 12.0 18.0 0.00 0.00 0.00 84 1015.8
20260901030016 68 225 13.0 19.0 0.00 0.00 0.00 84 1015.8
20260901025516 68 225 12.0 16.0 0.00 0.00 0.00 84 1015.8
20260901025016 68 225 12.0 17.0 0.00 0.00 0.00 84 1015.9
20260901024516 68 225 13.0 18.0 0.00 0.00 0.00 84 1015.9
20260901024016 68 225 14.0 19.0 0.00 0.00 0.00 83 1015.9
20260901023516 68 225 13.0 17.0 0.00 0.00 0.00 83 1016.0
20260901023016 68 225 14.0 18.0 0.00 0.00 0.00 83 1015.9
20260901022516 68 203 15.0 19.0 0.00 0.00 0.00 83 1015.9
20260901022036 68 203 15.0 18.0 0.00 0.00 0.00 82 1015.8
20260901021516 68 203 15.0 18.0 0.00 0.00 0.00 82 1015.8
20260901021016 68 203 16.0 19.0 0.00 0.00 0.00 82 1015.9
20260901020516 68 203 16.0 18.0 0.00 0.00 0.00 81 1015.9
20260901020016 68 203 16.0 19.0 0.00 0.00 0.00 81 1016.0
20260901015536 68 203 15.0 18.0 0.00 0.00 0.00 81 1016.0
20260901015016 68 203 16.0 20.0 0.00 0.00 0.00 80 1016.1
20260901014516 68 203 17.0 20.0 0.00 0.00 0.00 80 1016.1
20260901014016 68 203 17.0 20.0 0.00 0.00 0.00 79 1016.0
20260901013516 68 203 16.0 19.0 0.00 0.00 0.00 79 1016.0
20260901013016 68 203 16.0 19.0 0.00 0.00 0.00 78 1016.0
20260901012516 68 203 18.0 21.0 0.00 0.00 0.00 77 1016.0
20260901012016 68 203 18.0 21.0 0.00 0.00 0.00 77 1016.0
20260901011516 69 203 18.0 22.0 0.00 0.00 0.00 76 1016.0
20260901011016 69 203 19.0 22.0 0.00 0.00 0.00 75 1016.0
20260901010516 69 203 18.0 21.0 0.00 0.00 0.00 75 1016.0
20260901010016 69 203 17.0 20.0 0.00 0.00 0.00 75 1016.0
20260901005516 69 203 17.0 21.0 0.00 0.00 0.00 74 1016.0
20260901005016 69 203 15.0 20.0 0.00 0.00 0.00 74 1016.1
20260901004516 69 203 16.0 18.0 0.00 0.00 0.00 74 1016.1
20260901004016 69 203 14.0 17.0 0.00 0.00 0.00 74 1016.0
20260901003516 69 203 15.0 18.0 0.00 0.00 0.00 74 1016.1
20260901003016 69 203 14.0 17.0 0.00 0.00 0.00 73 1016.0
20260901002516 69 203 14.0 17.0 0.00 0.00 0.00 73 1016.0
20260901002016 69 203 14.0 17.0 0.00 0.00 0.00 74 1016.2
20260901001516 68 203 14.0 18.0 0.00 0.00 0.00 75 1016.0
20260901001016 68 203 15.0 17.0 0.00 0.00 0.00 75 1016.0
20260901000516 68 203 14.0 17.0 0.00 0.00 0.00 76 1016.1
20260901000015 68 203 15.0 18.0 0.00 0.00 0.00 75 1016.1
20260831235516 68 203 15.0 18.0 0.00 0.00 0.00 74 1016.1
20260831235016 69 203 13.0 16.0 0.00 0.00 0.00 74 1016.2
20260831234557 68 203 14.0 17.0 0.00 0.00 0.00 73 1016.2
20260831234015 68 203 15.0 18.0 0.00 0.00 0.00 72 1016.2
20260831233515 68 203 15.0 17.0 0.00 0.00 0.00 73 1016.1
20260831233016 68 203 15.0 17.0 0.00 0.00 0.00 71 1016.2
20260831232516 68 203 15.0 18.0 0.00 0.00 0.00 72 1016.3
20260831232016 68 203 16.0 18.0 0.00 0.00 0.00 72 1016.3
20260831231515 68 203 15.0 17.0 0.00 0.00 0.00 73 1016.2
20260831231016 68 203 16.0 18.0 0.00 0.00 0.00 72 1016.3
20260831230515 68 203 15.0 18.0 0.00 0.00 0.00 72 1016.3
20260831230016 68 203 16.0 18.0 0.00 0.00 0.00 71 1016.3
20260831225516 68 203 15.0 18.0 0.00 0.00 0.00 71 1016.3
20260831225016 68 203 15.0 18.0 0.00 0.00 0.00 72 1016.4
20260831224515 69 203 14.0 17.0 0.00 0.00 0.00 71 1016.4
20260831224015 68 203 14.0 18.0 0.00 0.00 0.00 71 1016.4
20260831223536 68 203 14.0 16.0 0.00 0.00 0.00 72 1016.3
20260831223015 69 203 13.0 16.0 0.00 0.00 0.00 72 1016.3
20260831222516 68 180 13.0 15.0 0.00 0.00 0.00 70 1016.4
20260831222035 68 180 14.0 16.0 0.00 0.00 0.00 71 1016.4
20260831221516 68 180 14.0 17.0 0.00 0.00 0.00 72 1016.4
20260831221058 68 180 14.0 18.0 0.00 0.00 0.00 72 1016.4
20260831220515 68 180 15.0 17.0 0.00 0.00 0.00 73 1016.4
20260831220015 68 180 14.0 16.0 0.00 0.00 0.00 72 1016.4
20260831215536 68 180 14.0 17.0 0.00 0.00 0.00 70 1016.3
20260831215056 68 180 14.0 17.0 0.00 0.00 0.00 70 1016.4
20260831214515 68 180 13.0 17.0 0.00 0.00 0.00 71 1016.5
20260831214015 68 180 13.0 15.0 0.00 0.00 0.00 71 1016.6
20260831213515 68 180 14.0 16.0 0.00 0.00 0.00 69 1016.7
20260831213016 68 180 15.0 17.0 0.00 0.00 0.00 71 1016.7
20260831212515 68 180 14.0 17.0 0.00 0.00 0.00 70 1016.7
20260831212015 68 180 14.0 17.0 0.00 0.00 0.00 71 1016.7
20260831211516 68 180 14.0 17.0 0.00 0.00 0.00 70 1016.8
20260831211015 68 180 13.0 17.0 0.00 0.00 0.00 70 1016.8
20260831210515 69 203 14.0 17.0 0.00 0.00 0.00 69 1016.8
20260831210015 68 203 15.0 18.0 0.00 0.00 0.00 69 1016.8
20260831205515 68 180 15.0 17.0 0.00 0.00 0.00 69 1016.8
20260831205017 69 180 14.0 16.0 0.00 0.00 0.00 69 1016.9
20260831204537 69 203 14.0 17.0 0.00 0.00 0.00 69 1016.9
20260831204015 68 180 14.0 16.0 0.00 0.00 0.00 68 1016.9
20260831203515 68 180 13.0 15.0 0.00 0.00 0.00 69 1017.0
20260831203015 68 180 13.0 15.0 0.00 0.00 0.00 70 1017.0
20260831202556 68 180 13.0 15.0 0.00 0.00 0.00 68 1016.9
20260831202015 68 180 13.0 15.0 0.00 0.00 0.00 69 1016.9
20260831201515 68 180 13.0 15.0 0.00 0.00 0.00 68 1016.9
20260831201016 68 180 12.0 15.0 0.00 0.00 0.00 69 1017.0
20260831200516 68 180 13.0 15.0 0.00 0.00 0.00 69 1016.9
20260831200015 68 180 12.0 15.0 0.00 0.00 0.00 69 1016.9
20260831195537 68 180 12.0 15.0 0.00 0.00 0.00 68 1016.9
20260831195016 68 180 11.0 14.0 0.00 0.00 0.00 68 1016.9
20260831194556 68 180 12.0 15.0 0.00 0.00 0.00 69 1016.9
20260831194017 68 180 12.0 15.0 0.00 0.00 0.00 68 1016.9
20260831193518 69 180 12.0 15.0 0.00 0.00 0.00 69 1016.9
20260831193017 68 180 11.0 14.0 0.00 0.00 0.00 68 1016.9
20260831192517 68 180 11.0 14.0 0.00 0.00 0.00 69 1017.0
20260831192017 68 158 11.0 14.0 0.00 0.00 0.00 68 1017.0
20260831191517 68 158 12.0 14.0 0.00 0.00 0.00 69 1017.2
20260831191038 68 180 11.0 16.0 0.00 0.00 0.00 69 1017.2
20260831190517 69 180 10.0 14.0 0.00 0.00 0.00 69 1017.6
20260831190016 69 180 9.0 13.0 0.00 0.00 0.00 69 1017.6
20260831185517 68 180 11.0 14.0 0.00 0.00 0.00 69 1017.6
20260831185018 68 180 10.0 14.0 0.00 0.00 0.00 70 1017.7
20260831184517 68 180 10.0 13.0 0.00 0.00 0.00 69 1017.6
20260831184017 68 180 10.0 13.0 0.00 0.00 0.00 69 1017.6
20260831183517 68 180 10.0 13.0 0.00 0.00 0.00 70 1017.7
20260831183038 67 180 10.0 12.0 0.00 0.00 0.00 70 1017.7
20260831182517 67 180 10.0 12.0 0.00 0.00 0.00 69 1017.8
20260831182017 68 180 10.0 14.0 0.00 0.00 0.00 70 1017.7
20260831181537 67 180 10.0 12.0 0.00 0.00 0.00 69 1017.9
20260831181018 69 180 8.0 12.0 0.00 0.00 0.00 68 1017.8
20260831180538 68 158 8.0 13.0 0.00 0.00 0.00 69 1017.8
20260831180017 67 180 10.0 13.0 0.00 0.00 0.00 69 1017.9
20260831175538 67 180 9.0 11.0 0.00 0.00 0.00 69 1017.9
20260831175017 67 180 10.0 13.0 0.00 0.00 0.00 69 1018.0
20260831174518 67 180 10.0 12.0 0.00 0.00 0.00 68 1018.0
20260831174118 67 180 9.0 11.0 0.00 0.00 0.00 67 1018.1
20260831173538 67 180 9.0 11.0 0.00 0.00 0.00 67 1018.2
20260831173017 67 180 9.0 14.0 0.00 0.00 0.00 67 1018.2
20260831172518 67 180 8.0 11.0 0.00 0.00 0.00 67 1018.2
20260831172017 68 180 8.0 11.0 0.00 0.00 0.00 65 1018.2
20260831171517 68 180 8.0 14.0 0.00 0.00 0.00 68 1018.2
20260831171017 67 180 8.0 10.0 0.00 0.00 0.00 67 1018.3
20260831170517 68 180 8.0 11.0 0.00 0.00 0.00 67 1018.3
20260831170017 68 180 7.0 10.0 0.00 0.00 0.00 66 1018.4
20260831165518 68 180 7.0 10.0 0.00 0.00 0.00 67 1018.4
20260831165017 69 180 7.0 10.0 0.00 0.00 0.00 67 1018.4
20260831164517 69 158 7.0 11.0 0.00 0.00 0.00 66 1018.4
20260831164038 70 158 6.0 9.0 0.00 0.00 0.00 66 1018.5
20260831163537 70 113 5.0 8.0 0.00 0.00 0.00 65 1018.5
20260831163017 70 113 6.0 9.0 0.00 0.00 0.00 66 1018.5
20260831162517 70 113 5.0 8.0 0.00 0.00 0.00 66 1018.6
20260831162017 69 135 5.0 8.0 0.00 0.00 0.00 66 1018.6
20260831161517 70 113 6.0 8.0 0.00 0.00 0.00 66 1018.7
20260831161017 69 113 6.0 8.0 0.00 0.00 0.00 68 1018.7
20260831160538 69 113 6.0 9.0 0.00 0.00 0.00 68 1018.7
20260831160037 68 68 6.0 8.0 0.00 0.00 0.00 68 1018.8
20260831155517 68 68 7.0 10.0 0.00 0.00 0.00 68 1018.8
20260831155017 69 113 7.0 10.0 0.00 0.00 0.00 68 1018.8
20260831154517 69 113 6.0 8.0 0.00 0.00 0.00 68 1018.9
20260831154017 68 90 5.0 9.0 0.00 0.00 0.00 69 1018.9
20260831153517 68 68 5.0 9.0 0.00 0.00 0.00 69 1018.9
20260831153018 67 90 5.0 9.0 0.00 0.00 0.00 69 1019.0
20260831152517 68 68 7.0 11.0 0.00 0.00 0.00 69 1018.9
20260831152017 68 68 5.0 8.0 0.00 0.00 0.00 70 1018.9
20260831151517 67 90 5.0 8.0 0.00 0.00 0.00 70 1019.0
20260831151017 68 90 6.0 9.0 0.00 0.00 0.00 69 1018.9
20260831150517 68 68 7.0 12.0 0.00 0.00 0.00 69 1018.8
20260831150017 69 68 6.0 11.0 0.00 0.00 0.00 69 1018.8
20260831145537 69 68 5.0 11.0 0.00 0.00 0.00 70 1018.8
20260831145017 69 68 7.0 13.0 0.00 0.00 0.00 69 1018.7
20260831144517 69 45 7.0 12.0 0.00 0.00 0.00 69 1018.8
20260831144017 69 45 8.0 13.0 0.00 0.00 0.00 69 1018.7
20260831143517 69 45 8.0 12.0 0.00 0.00 0.00 69 1018.7
20260831143017 69 45 7.0 12.0 0.00 0.00 0.00 69 1018.7
20260831142518 69 45 8.0 12.0 0.00 0.00 0.00 69 1018.7
20260831142017 69 45 8.0 12.0 0.00 0.00 0.00 70 1018.6
20260831141517 69 45 8.0 11.0 0.00 0.00 0.00 69 1018.6
20260831141017 69 45 7.0 11.0 0.00 0.00 0.00 70 1018.7
20260831140517 69 45 6.0 12.0 0.00 0.00 0.00 69 1018.6
20260831140016 69 45 5.0 12.0 0.00 0.00 0.00 70 1018.6
20260831135517 69 45 8.0 13.0 0.00 0.00 0.00 70 1018.7
20260831135017 69 45 7.0 13.0 0.00 0.00 0.00 70 1018.5
20260831134517 69 45 8.0 11.0 0.00 0.00 0.00 70 1018.6